TimeCDT,TemperatureF,Dew PointF,Humidity,Sea Level PressureIn,VisibilityMPH,Wind Direction,Wind SpeedMPH,Gust SpeedMPH,PrecipitationIn,Events,Conditions,WindDirDegrees,DateUTC
12:53 AM,55.9,52.0,87,30.09,10.0,WNW,3.5,-,N/A,,Clear,300,2012-09-08 05:53:00
1:53 AM,55.0,52.0,89,30.12,10.0,Calm,Calm,-,N/A,,Clear,0,2012-09-08 06:53:00
2:53 AM,55.9,50.0,80,30.14,10.0,NNW,4.6,-,N/A,,Clear,340,2012-09-08 07:53:00
3:53 AM,55.0,48.9,80,30.14,10.0,NNW,4.6,-,N/A,,Clear,330,2012-09-08 08:53:00
4:53 AM,54.0,48.9,83,30.15,10.0,Calm,Calm,-,N/A,,Clear,0,2012-09-08 09:53:00
5:53 AM,51.1,48.0,89,30.15,10.0,Calm,Calm,-,N/A,,Clear,0,2012-09-08 10:53:00
6:53 AM,51.1,48.0,89,30.17,10.0,Calm,Calm,-,N/A,,Clear,0,2012-09-08 11:53:00
7:53 AM,53.1,48.9,86,30.18,10.0,WNW,3.5,-,N/A,,Clear,290,2012-09-08 12:53:00
8:53 AM,57.9,50.0,75,30.19,10.0,WNW,5.8,-,N/A,,Clear,290,2012-09-08 13:53:00
9:53 AM,64.0,53.1,67,30.19,10.0,Variable,5.8,-,N/A,,Clear,0,2012-09-08 14:53:00
10:53 AM,69.1,48.9,49,30.18,10.0,WNW,6.9,-,N/A,,Clear,290,2012-09-08 15:53:00
11:53 AM,72.0,46.9,41,30.17,10.0,WNW,6.9,18.4,N/A,,Clear,300,2012-09-08 16:53:00
12:53 PM,75.0,46.0,36,30.14,10.0,NNW,12.7,20.7,N/A,,Clear,330,2012-09-08 17:53:00
1:53 PM,77.0,46.0,33,30.12,10.0,NW,15.0,19.6,N/A,,Clear,310,2012-09-08 18:53:00
2:53 PM,79.0,48.0,34,30.09,10.0,NW,9.2,17.3,N/A,,Clear,320,2012-09-08 19:53:00
3:53 PM,80.1,46.0,30,30.06,10.0,NW,10.4,-,N/A,,Clear,320,2012-09-08 20:53:00
4:53 PM,80.1,45.0,29,30.03,10.0,WNW,4.6,-,N/A,,Clear,290,2012-09-08 21:53:00
5:53 PM,80.1,42.1,26,30.02,10.0,West,8.1,-,N/A,,Clear,270,2012-09-08 22:53:00
6:53 PM,78.1,46.0,32,30.01,10.0,West,3.5,-,N/A,,Clear,280,2012-09-08 23:53:00
7:53 PM,73.0,46.9,39,30.01,10.0,SW,3.5,-,N/A,,Clear,230,2012-09-09 00:53:00
8:53 PM,64.9,50.0,58,30.02,10.0,SW,3.5,-,N/A,,Clear,220,2012-09-09 01:53:00
9:53 PM,61.0,54.0,78,30.02,10.0,Calm,Calm,-,N/A,,Clear,0,2012-09-09 02:53:00
10:53 PM,61.0,52.0,72,30.01,10.0,Calm,Calm,-,N/A,,Clear,0,2012-09-09 03:53:00
11:53 PM,57.0,51.1,81,30.01,10.0,Calm,Calm,-,N/A,,Clear,0,2012-09-09 04:53:00